Time,TemperatureF,DewpointF,PressureIn,WindDirection,WindDirectionDegrees,WindSpeedMPH,WindSpeedGustMPH,Humidity,HourlyPrecipIn,Conditions,Clouds,dailyrainin,SoftwareType,DateUTC
2013-04-29 00:00:00,55.6,15.2,30.18,East,90,3.1,3.1,20,0.00,,---,0.00,VWS V14.01,2013-04-29 04:00:00,
2013-04-29 00:10:00,55.6,15.2,30.18,ENE,68,0.9,4.9,20,0.00,,---,0.00,VWS V14.01,2013-04-29 04:10:00,
2013-04-29 00:20:00,55.2,14.9,30.18,East,90,2.0,2.2,20,0.00,,---,0.00,VWS V14.01,2013-04-29 04:20:00,
2013-04-29 00:30:00,55.0,14.7,30.18,ESE,112,0.0,2.2,20,0.00,,---,0.00,VWS V14.01,2013-04-29 04:30:00,
2013-04-29 00:40:00,54.9,14.6,30.18,ENE,68,1.6,2.9,20,0.00,,---,0.00,VWS V14.01,2013-04-29 04:40:00,
2013-04-29 00:50:00,54.7,14.4,30.18,East,90,2.9,3.6,20,0.00,,---,0.00,VWS V14.01,2013-04-29 04:50:00,
2013-04-29 01:00:00,54.5,14.3,30.18,East,90,3.6,4.3,20,0.00,,---,0.00,VWS V14.01,2013-04-29 05:00:00,
2013-04-29 01:10:00,54.5,14.3,30.18,ESE,112,3.6,4.9,20,0.00,,---,0.00,VWS V14.01,2013-04-29 05:10:00,
2013-04-29 01:20:00,54.3,14.1,30.18,East,90,0.9,4.0,20,0.00,,---,0.00,VWS V14.01,2013-04-29 05:20:00,
2013-04-29 01:30:00,54.1,14.0,30.18,East,90,1.6,3.6,20,0.00,,---,0.00,VWS V14.01,2013-04-29 05:30:00,
2013-04-29 01:40:00,54.0,13.8,30.18,East,90,2.5,2.9,20,0.00,,---,0.00,VWS V14.01,2013-04-29 05:40:00,
2013-04-29 01:50:00,53.6,13.5,30.18,SE,135,1.1,4.0,20,0.00,,---,0.00,VWS V14.01,2013-04-29 05:50:00,
2013-04-29 02:00:00,53.1,14.2,30.18,South,180,0.9,2.2,21,0.00,,---,0.00,VWS V14.01,2013-04-29 06:00:00,
2013-04-29 02:10:00,52.5,18.6,30.18,NE,45,0.0,2.2,26,0.00,,---,0.00,VWS V14.01,2013-04-29 06:10:00,
2013-04-29 02:20:00,52.0,19.9,30.15,ENE,68,1.3,3.6,28,0.00,,---,0.00,VWS V14.01,2013-04-29 06:20:00,
2013-04-29 02:30:00,51.8,21.4,30.15,East,90,2.5,3.8,30,0.00,,---,0.00,VWS V14.01,2013-04-29 06:30:00,
2013-04-29 02:40:00,51.8,21.4,30.12,East,90,1.3,2.9,30,0.00,,---,0.00,VWS V14.01,2013-04-29 06:40:00,
2013-04-29 02:50:00,51.8,21.4,30.12,ENE,68,1.1,3.4,30,0.00,,---,0.00,VWS V14.01,2013-04-29 06:50:00,
2013-04-29 03:00:00,52.0,21.5,30.12,ENE,68,0.0,2.9,30,0.00,,---,0.00,VWS V14.01,2013-04-29 07:00:00,
2013-04-29 03:10:00,52.0,20.7,30.12,ENE,68,1.6,2.5,29,0.00,,---,0.00,VWS V14.01,2013-04-29 07:10:00,
2013-04-29 03:20:00,51.8,20.6,30.15,ESE,112,1.1,2.2,29,0.00,,---,0.00,VWS V14.01,2013-04-29 07:20:00,
2013-04-29 03:30:00,51.8,21.4,30.15,SE,135,0.0,2.0,30,0.00,,---,0.00,VWS V14.01,2013-04-29 07:30:00,
2013-04-29 03:40:00,51.6,23.5,30.12,SE,135,0.9,2.5,33,0.00,,---,0.00,VWS V14.01,2013-04-29 07:40:00,
2013-04-29 03:50:00,51.4,25.4,30.15,East,90,1.6,2.7,36,0.00,,---,0.00,VWS V14.01,2013-04-29 07:50:00,
2013-04-29 04:00:00,51.1,26.4,30.15,East,90,1.6,2.9,38,0.00,,---,0.00,VWS V14.01,2013-04-29 08:00:00,
2013-04-29 04:10:00,51.1,27.0,30.15,SE,135,0.0,2.7,39,0.00,,---,0.00,VWS V14.01,2013-04-29 08:10:00,
2013-04-29 04:20:00,51.1,28.8,30.15,East,90,2.5,4.0,42,0.00,,---,0.00,VWS V14.01,2013-04-29 08:20:00,
2013-04-29 04:30:00,51.1,30.0,30.15,East,90,1.3,2.7,44,0.00,,---,0.00,VWS V14.01,2013-04-29 08:30:00,
2013-04-29 04:40:00,51.3,31.7,30.15,ENE,68,2.7,3.4,47,0.00,,---,0.00,VWS V14.01,2013-04-29 08:40:00,
2013-04-29 04:50:00,51.3,31.7,30.12,NE,45,1.6,2.9,47,0.00,,---,0.00,VWS V14.01,2013-04-29 08:50:00,
2013-04-29 05:00:00,51.3,32.3,30.12,East,90,1.6,3.4,48,0.00,,---,0.00,VWS V14.01,2013-04-29 09:00:00,
2013-04-29 05:10:00,51.4,32.9,30.15,SE,135,2.5,3.8,49,0.00,,---,0.00,VWS V14.01,2013-04-29 09:10:00,
2013-04-29 05:20:00,51.4,33.4,30.15,East,90,2.5,3.4,50,0.00,,---,0.00,VWS V14.01,2013-04-29 09:20:00,
2013-04-29 05:30:00,51.4,34.9,30.15,SE,135,2.2,4.0,53,0.00,,---,0.00,VWS V14.01,2013-04-29 09:30:00,
2013-04-29 05:40:00,51.4,35.8,30.15,SE,135,2.9,5.4,55,0.00,,---,0.00,VWS V14.01,2013-04-29 09:40:00,
2013-04-29 05:50:00,51.6,36.9,30.15,ESE,112,2.9,4.0,57,0.04,,---,0.04,VWS V14.01,2013-04-29 09:50:00,
2013-04-29 06:00:00,51.6,38.2,30.15,ESE,112,3.1,5.6,60,0.04,,---,0.04,VWS V14.01,2013-04-29 10:00:00,
2013-04-29 06:10:00,51.8,39.6,30.12,ENE,68,4.7,6.3,63,0.04,,---,0.04,VWS V14.01,2013-04-29 10:10:00,
2013-04-29 06:20:00,51.8,40.8,30.15,SSE,158,1.6,6.0,66,0.04,,---,0.04,VWS V14.01,2013-04-29 10:20:00,
2013-04-29 06:30:00,51.8,41.2,30.15,SSW,202,2.7,8.5,67,0.04,,---,0.04,VWS V14.01,2013-04-29 10:30:00,
2013-04-29 06:40:00,52.0,41.8,30.15,ESE,112,1.1,5.4,68,0.04,,---,0.04,VWS V14.01,2013-04-29 10:40:00,
2013-04-29 06:50:00,52.2,42.3,30.15,ESE,112,7.6,7.6,69,0.04,,---,0.04,VWS V14.01,2013-04-29 10:50:00,
2013-04-29 07:00:00,52.2,42.7,30.15,East,90,2.2,7.6,70,0.04,,---,0.08,VWS V14.01,2013-04-29 11:00:00,
2013-04-29 07:10:00,52.3,43.2,30.18,ESE,112,7.2,7.2,71,0.04,,---,0.08,VWS V14.01,2013-04-29 11:10:00,
2013-04-29 07:20:00,52.5,43.8,30.15,SSE,158,2.9,12.5,72,0.04,,---,0.08,VWS V14.01,2013-04-29 11:20:00,
2013-04-29 07:30:00,52.5,43.8,30.15,SE,135,2.7,7.8,72,0.04,,---,0.08,VWS V14.01,2013-04-29 11:30:00,
2013-04-29 07:40:00,52.7,43.9,30.15,SSE,158,2.7,7.8,72,0.04,,---,0.08,VWS V14.01,2013-04-29 11:40:00,
2013-04-29 07:50:00,52.7,43.9,30.18,ENE,68,1.6,8.1,72,0.04,,---,0.08,VWS V14.01,2013-04-29 11:50:00,
2013-04-29 08:00:00,52.9,43.8,30.18,NNE,22,3.8,11.9,71,0.08,,---,0.12,VWS V14.01,2013-04-29 12:00:00,
2013-04-29 08:10:00,53.1,43.9,30.15,SW,225,2.2,6.3,71,0.04,,---,0.12,VWS V14.01,2013-04-29 12:10:00,
2013-04-29 08:20:00,53.1,43.5,30.18,South,180,4.0,10.7,70,0.04,,---,0.12,VWS V14.01,2013-04-29 12:20:00,
2013-04-29 08:30:00,53.1,43.2,30.18,ENE,68,0.9,10.7,69,0.04,,---,0.12,VWS V14.01,2013-04-29 12:30:00,
2013-04-29 08:40:00,53.1,43.2,30.15,South,180,2.9,7.8,69,0.04,,---,0.12,VWS V14.01,2013-04-29 12:40:00,
2013-04-29 08:50:00,53.1,42.8,30.15,SE,135,2.7,10.1,68,0.04,,---,0.12,VWS V14.01,2013-04-29 12:50:00,
2013-04-29 09:00:00,53.2,43.3,30.15,SW,225,6.0,6.0,69,0.04,,---,0.12,VWS V14.01,2013-04-29 13:00:00,
2013-04-29 09:10:00,53.2,43.0,30.15,South,180,2.9,7.4,68,0.00,,---,0.12,VWS V14.01,2013-04-29 13:10:00,
2013-04-29 09:20:00,53.2,43.3,30.15,South,180,2.0,7.6,69,0.00,,---,0.12,VWS V14.01,2013-04-29 13:20:00,
2013-04-29 09:30:00,53.2,43.3,30.15,SSE,158,4.0,9.0,69,0.00,,---,0.12,VWS V14.01,2013-04-29 13:30:00,
2013-04-29 09:40:00,53.4,43.5,30.15,ENE,68,6.0,12.1,69,0.00,,---,0.12,VWS V14.01,2013-04-29 13:40:00,
2013-04-29 09:50:00,53.6,44.1,30.15,SW,225,2.9,8.1,70,0.00,,---,0.12,VWS V14.01,2013-04-29 13:50:00,
2013-04-29 10:00:00,53.4,43.9,30.15,SE,135,3.6,10.5,70,0.00,,---,0.12,VWS V14.01,2013-04-29 14:00:00,
2013-04-29 10:10:00,53.6,44.1,30.15,SW,225,2.9,9.8,70,0.05,,---,0.17,VWS V14.01,2013-04-29 14:10:00,
2013-04-29 10:20:00,53.6,44.1,30.15,East,90,1.3,8.5,70,0.05,,---,0.17,VWS V14.01,2013-04-29 14:20:00,
2013-04-29 10:30:00,53.6,44.1,30.15,East,90,3.1,6.5,70,0.05,,---,0.17,VWS V14.01,2013-04-29 14:30:00,
2013-04-29 10:40:00,53.6,44.4,30.15,ESE,112,3.1,7.2,71,0.09,,---,0.21,VWS V14.01,2013-04-29 14:40:00,
2013-04-29 10:50:00,53.6,44.4,30.15,ESE,112,4.7,7.8,71,0.09,,---,0.21,VWS V14.01,2013-04-29 14:50:00,
2013-04-29 11:00:00,53.6,44.4,30.15,SSE,158,4.3,9.8,71,0.13,,---,0.25,VWS V14.01,2013-04-29 15:00:00,
2013-04-29 11:10:00,53.8,45.0,30.15,East,90,5.6,10.1,72,0.13,,---,0.25,VWS V14.01,2013-04-29 15:10:00,
2013-04-29 11:20:00,53.8,44.6,30.15,NE,45,6.0,10.3,71,0.12,,---,0.29,VWS V14.01,2013-04-29 15:20:00,
2013-04-29 11:30:00,53.6,44.8,30.15,SE,135,5.6,6.3,72,0.12,,---,0.29,VWS V14.01,2013-04-29 15:30:00,
2013-04-29 11:40:00,53.6,44.8,30.15,East,90,6.0,6.5,72,0.16,,---,0.33,VWS V14.01,2013-04-29 15:40:00,
2013-04-29 11:50:00,53.8,45.3,30.15,ESE,112,2.2,8.7,73,0.12,,---,0.33,VWS V14.01,2013-04-29 15:50:00,
2013-04-29 12:00:00,53.8,45.3,30.15,ESE,112,4.9,6.0,73,0.12,,---,0.33,VWS V14.01,2013-04-29 16:00:00,
2013-04-29 12:10:00,54.0,45.9,30.15,East,90,2.9,7.8,74,0.08,,---,0.33,VWS V14.01,2013-04-29 16:10:00,
2013-04-29 12:20:00,54.0,45.9,30.15,NE,45,5.6,10.1,74,0.08,,---,0.33,VWS V14.01,2013-04-29 16:20:00,
2013-04-29 12:30:00,54.1,46.4,30.15,SSW,202,3.1,7.2,75,0.09,,---,0.38,VWS V14.01,2013-04-29 16:30:00,
2013-04-29 12:40:00,54.3,46.6,30.15,South,180,2.7,6.0,75,0.09,,---,0.38,VWS V14.01,2013-04-29 16:40:00,
2013-04-29 12:50:00,54.5,47.1,30.15,East,90,5.6,7.2,76,0.05,,---,0.38,VWS V14.01,2013-04-29 16:50:00,
2013-04-29 13:00:00,54.7,47.3,30.15,East,90,2.7,8.1,76,0.09,,---,0.42,VWS V14.01,2013-04-29 17:00:00,
2013-04-29 13:10:00,54.9,47.5,30.15,SE,135,4.3,9.8,76,0.09,,---,0.42,VWS V14.01,2013-04-29 17:10:00,
2013-04-29 13:20:00,54.9,47.5,30.15,ESE,112,3.1,6.3,76,0.09,,---,0.42,VWS V14.01,2013-04-29 17:20:00,
2013-04-29 13:30:00,55.2,47.8,30.15,East,90,2.7,7.4,76,0.13,,---,0.46,VWS V14.01,2013-04-29 17:30:00,
2013-04-29 13:40:00,55.4,48.0,30.12,North,0,1.1,7.6,76,0.08,,---,0.46,VWS V14.01,2013-04-29 17:40:00,
2013-04-29 13:50:00,55.4,48.0,30.12,South,180,2.0,6.0,76,0.08,,---,0.46,VWS V14.01,2013-04-29 17:50:00,
2013-04-29 14:00:00,55.6,48.2,30.12,SSE,158,2.9,6.5,76,0.12,,---,0.50,VWS V14.01,2013-04-29 18:00:00,
2013-04-29 14:10:00,55.6,48.2,30.12,SE,135,3.8,7.2,76,0.08,,---,0.50,VWS V14.01,2013-04-29 18:10:00,
2013-04-29 14:20:00,55.9,48.5,30.15,ESE,112,3.1,6.0,76,0.08,,---,0.50,VWS V14.01,2013-04-29 18:20:00,
2013-04-29 14:30:00,55.9,48.5,30.15,ESE,112,2.2,6.0,76,0.08,,---,0.50,VWS V14.01,2013-04-29 18:30:00,
2013-04-29 14:40:00,55.9,48.1,30.15,ENE,68,7.8,7.8,75,0.04,,---,0.50,VWS V14.01,2013-04-29 18:40:00,
2013-04-29 14:50:00,55.9,48.1,30.15,ENE,68,6.0,10.7,75,0.08,,---,0.54,VWS V14.01,2013-04-29 18:50:00,
2013-04-29 15:00:00,56.1,48.3,30.15,ESE,112,3.8,7.4,75,0.08,,---,0.54,VWS V14.01,2013-04-29 19:00:00,
2013-04-29 15:10:00,56.1,48.3,30.15,ESE,112,3.6,7.6,75,0.04,,---,0.54,VWS V14.01,2013-04-29 19:10:00,
2013-04-29 15:20:00,56.1,48.3,30.15,East,90,2.0,4.3,75,0.04,,---,0.54,VWS V14.01,2013-04-29 19:20:00,
2013-04-29 15:30:00,56.3,48.1,30.15,SSE,158,3.1,7.8,74,0.04,,---,0.54,VWS V14.01,2013-04-29 19:30:00,
2013-04-29 15:40:00,56.3,47.8,30.15,ESE,112,6.0,7.2,73,0.04,,---,0.54,VWS V14.01,2013-04-29 19:40:00,
2013-04-29 15:50:00,56.5,47.6,30.15,SSE,158,0.9,6.7,72,0.04,,---,0.54,VWS V14.01,2013-04-29 19:50:00,
2013-04-29 16:00:00,56.7,47.8,30.15,South,180,2.9,6.0,72,0.00,,---,0.54,VWS V14.01,2013-04-29 20:00:00,
2013-04-29 16:10:00,56.7,47.0,30.15,South,180,1.3,8.5,70,0.00,,---,0.54,VWS V14.01,2013-04-29 20:10:00,
2013-04-29 16:20:00,56.7,45.8,30.12,SE,135,3.1,6.3,67,0.00,,---,0.54,VWS V14.01,2013-04-29 20:20:00,
2013-04-29 16:30:00,56.7,45.8,30.12,SE,135,2.5,4.7,67,0.00,,---,0.54,VWS V14.01,2013-04-29 20:30:00,
2013-04-29 16:40:00,56.7,46.2,30.15,SW,225,2.0,5.4,68,0.00,,---,0.54,VWS V14.01,2013-04-29 20:40:00,
2013-04-29 16:50:00,56.7,46.2,30.12,SSE,158,4.9,6.3,68,0.00,,---,0.54,VWS V14.01,2013-04-29 20:50:00,
2013-04-29 17:00:00,56.7,46.2,30.12,SE,135,3.6,6.3,68,0.00,,---,0.54,VWS V14.01,2013-04-29 21:00:00,
2013-04-29 17:10:00,56.8,46.4,30.15,SSE,158,7.8,7.8,68,0.00,,---,0.54,VWS V14.01,2013-04-29 21:10:00,
2013-04-29 17:20:00,56.8,46.0,30.15,SE,135,2.0,7.8,67,0.00,,---,0.54,VWS V14.01,2013-04-29 21:20:00,
2013-04-29 17:30:00,56.8,45.6,30.15,SSE,158,0.0,6.3,66,0.00,,---,0.54,VWS V14.01,2013-04-29 21:30:00,
2013-04-29 17:40:00,56.8,43.1,30.15,ENE,68,1.3,7.8,60,0.00,,---,0.54,VWS V14.01,2013-04-29 21:40:00,
2013-04-29 17:50:00,57.0,44.1,30.15,SE,135,1.3,5.4,62,0.00,,---,0.54,VWS V14.01,2013-04-29 21:50:00,
2013-04-29 18:00:00,56.8,44.0,30.15,SE,135,1.6,6.3,62,0.00,,---,0.54,VWS V14.01,2013-04-29 22:00:00,
2013-04-29 18:02:00,57.0,45.0,30.15,SE,135,3.4,4.7,64,0.00,,---,0.54,VWS V14.01,2013-04-29 22:02:00,
2013-04-29 18:03:00,57.0,45.0,30.15,SSE,158,3.1,6.3,64,0.00,,---,0.54,VWS V14.01,2013-04-29 22:03:00,
2013-04-29 18:05:00,56.8,44.4,30.15,SSE,158,2.7,4.3,63,0.00,,---,0.54,VWS V14.01,2013-04-29 22:05:00,
2013-04-29 18:10:00,56.8,44.0,30.15,SE,135,2.9,5.6,62,0.00,,---,0.54,VWS V14.01,2013-04-29 22:10:00,
2013-04-29 18:15:00,56.8,43.5,30.15,South,180,2.7,4.0,61,0.00,,---,0.54,VWS V14.01,2013-04-29 22:15:00,
2013-04-29 18:20:00,56.7,42.5,30.15,South,180,2.5,6.3,59,0.00,,---,0.54,VWS V14.01,2013-04-29 22:20:00,
2013-04-29 18:25:00,56.7,42.5,30.15,SE,135,2.5,4.3,59,0.00,,---,0.54,VWS V14.01,2013-04-29 22:25:00,
2013-04-29 18:30:00,56.5,41.5,30.15,SE,135,3.1,4.9,57,0.00,,---,0.54,VWS V14.01,2013-04-29 22:30:00,
2013-04-29 18:36:00,56.5,41.9,30.15,SE,135,2.7,2.7,58,0.00,,---,0.54,VWS V14.01,2013-04-29 22:36:00,
2013-04-29 18:40:00,56.5,41.5,30.15,ESE,112,2.2,6.3,57,0.00,,---,0.54,VWS V14.01,2013-04-29 22:40:00,
2013-04-29 18:41:00,56.3,42.2,30.15,SE,135,3.4,5.4,59,0.00,,---,0.54,VWS V14.01,2013-04-29 22:41:00,
2013-04-29 18:46:00,56.1,42.9,30.15,South,180,2.9,3.4,61,0.00,,---,0.54,VWS V14.01,2013-04-29 22:46:00,
2013-04-29 18:50:00,56.3,42.6,30.15,East,90,1.6,5.4,60,0.00,,---,0.54,VWS V14.01,2013-04-29 22:50:00,
2013-04-29 18:51:00,56.1,43.7,30.15,SW,225,2.7,4.5,63,0.00,,---,0.54,VWS V14.01,2013-04-29 22:51:00,
2013-04-29 18:56:00,56.1,44.5,30.15,SSW,202,6.5,6.5,65,0.00,,---,0.54,VWS V14.01,2013-04-29 22:56:00,
2013-04-29 19:00:00,56.1,44.5,30.15,ENE,68,2.0,4.5,65,0.00,,---,0.54,VWS V14.01,2013-04-29 23:00:00,
2013-04-29 19:01:00,55.9,45.5,30.15,South,180,6.0,8.1,68,0.00,,---,0.54,VWS V14.01,2013-04-29 23:01:00,
2013-04-29 19:06:00,55.8,45.4,30.15,South,180,3.6,5.6,68,0.00,,---,0.54,VWS V14.01,2013-04-29 23:06:00,
2013-04-29 19:10:00,55.9,45.5,30.15,South,180,4.0,8.1,68,0.00,,---,0.54,VWS V14.01,2013-04-29 23:10:00,
2013-04-29 19:11:00,55.9,45.5,30.15,South,180,0.0,6.5,68,0.00,,---,0.54,VWS V14.01,2013-04-29 23:11:00,
2013-04-29 19:16:00,55.8,45.4,30.12,South,180,4.0,7.6,68,0.00,,---,0.54,VWS V14.01,2013-04-29 23:16:00,
2013-04-29 19:20:00,55.9,45.5,30.12,SSE,158,2.9,6.5,68,0.00,,---,0.54,VWS V14.01,2013-04-29 23:20:00,
2013-04-29 19:21:00,55.9,45.5,30.12,SE,135,2.7,7.6,68,0.00,,---,0.54,VWS V14.01,2013-04-29 23:21:00,
2013-04-29 19:26:00,55.8,45.8,30.12,SE,135,4.3,6.0,69,0.00,,---,0.54,VWS V14.01,2013-04-29 23:26:00,
2013-04-29 19:30:00,55.8,45.4,30.12,SE,135,2.9,7.6,68,0.00,,---,0.54,VWS V14.01,2013-04-29 23:30:00,
2013-04-29 19:31:00,55.8,45.8,30.15,SE,135,1.1,6.3,69,0.00,,---,0.54,VWS V14.01,2013-04-29 23:31:00,
2013-04-29 19:37:00,55.8,45.8,30.15,South,180,2.5,4.0,69,0.00,,---,0.54,VWS V14.01,2013-04-29 23:37:00,
2013-04-29 19:40:00,55.8,45.8,30.15,SE,135,4.0,6.3,69,0.00,,---,0.54,VWS V14.01,2013-04-29 23:40:00,
2013-04-29 19:42:00,55.8,45.8,30.15,SE,135,2.7,4.0,69,0.00,,---,0.54,VWS V14.01,2013-04-29 23:42:00,
2013-04-29 19:47:00,55.8,46.1,30.12,South,180,1.1,3.4,70,0.00,,---,0.54,VWS V14.01,2013-04-29 23:47:00,
2013-04-29 19:50:00,55.8,46.1,30.12,ESE,112,2.9,4.0,70,0.00,,---,0.54,VWS V14.01,2013-04-29 23:50:00,
2013-04-29 19:52:00,55.8,46.5,30.12,South,180,2.5,6.3,71,0.00,,---,0.54,VWS V14.01,2013-04-29 23:52:00,
2013-04-29 19:57:00,55.6,46.3,30.12,South,180,1.6,4.3,71,0.04,,---,0.58,VWS V14.01,2013-04-29 23:57:00,
2013-04-29 20:00:00,55.8,46.5,30.12,South,180,2.9,6.5,71,0.00,,---,0.54,VWS V14.01,2013-04-30 00:00:00,
2013-04-29 20:02:00,55.6,46.3,30.15,SE,135,4.0,6.3,71,0.04,,---,0.58,VWS V14.01,2013-04-30 00:02:00,
2013-04-29 20:07:00,55.4,46.2,30.15,SSE,158,2.7,5.6,71,0.04,,---,0.58,VWS V14.01,2013-04-30 00:07:00,
2013-04-29 20:10:00,55.6,46.3,30.15,NE,45,3.6,6.3,71,0.04,,---,0.58,VWS V14.01,2013-04-30 00:10:00,
2013-04-29 20:12:00,55.2,46.4,30.15,SSE,158,2.9,7.4,72,0.04,,---,0.58,VWS V14.01,2013-04-30 00:12:00,
2013-04-29 20:17:00,55.4,46.5,30.15,SE,135,2.9,5.8,72,0.04,,---,0.58,VWS V14.01,2013-04-30 00:17:00,
2013-04-29 20:20:00,55.2,46.4,30.15,East,90,5.4,7.6,72,0.04,,---,0.58,VWS V14.01,2013-04-30 00:20:00,
2013-04-29 20:22:00,55.2,46.7,30.15,SSE,158,2.7,6.3,73,0.04,,---,0.58,VWS V14.01,2013-04-30 00:22:00,
2013-04-29 20:27:00,55.2,46.7,30.15,ENE,68,3.4,8.5,73,0.04,,---,0.58,VWS V14.01,2013-04-30 00:27:00,
2013-04-29 20:30:00,55.2,46.7,30.15,ENE,68,8.5,8.5,73,0.04,,---,0.58,VWS V14.01,2013-04-30 00:30:00,
2013-04-29 20:32:00,55.2,46.7,30.15,East,90,0.9,8.5,73,0.04,,---,0.58,VWS V14.01,2013-04-30 00:32:00,
2013-04-29 20:38:00,55.0,46.5,30.15,South,180,1.6,5.4,73,0.04,,---,0.58,VWS V14.01,2013-04-30 00:38:00,
2013-04-29 20:40:00,55.2,46.7,30.15,ESE,112,1.1,8.5,73,0.04,,---,0.58,VWS V14.01,2013-04-30 00:40:00,
2013-04-29 20:43:00,55.0,46.5,30.15,South,180,1.6,5.6,73,0.04,,---,0.58,VWS V14.01,2013-04-30 00:43:00,
2013-04-29 20:48:00,54.9,46.4,30.15,ESE,112,2.0,5.6,73,0.04,,---,0.58,VWS V14.01,2013-04-30 00:48:00,
2013-04-29 20:50:00,55.0,46.5,30.15,ESE,112,1.3,5.6,73,0.04,,---,0.58,VWS V14.01,2013-04-30 00:50:00,
2013-04-29 20:53:00,54.9,46.4,30.15,SE,135,5.8,6.3,73,0.04,,---,0.58,VWS V14.01,2013-04-30 00:53:00,
2013-04-29 20:58:00,54.9,46.4,30.18,ESE,112,4.3,4.3,73,0.04,,---,0.58,VWS V14.01,2013-04-30 00:58:00,
2013-04-29 21:00:00,54.9,46.4,30.15,ESE,112,3.4,6.3,73,0.04,,---,0.58,VWS V14.01,2013-04-30 01:00:00,
2013-04-29 21:03:00,54.9,46.7,30.18,East,90,2.7,6.3,74,0.04,,---,0.58,VWS V14.01,2013-04-30 01:03:00,
2013-04-29 21:08:00,54.9,46.7,30.18,SE,135,2.0,3.6,74,0.00,,---,0.58,VWS V14.01,2013-04-30 01:08:00,
2013-04-29 21:10:00,54.9,46.7,30.18,ESE,112,2.9,6.3,74,0.04,,---,0.58,VWS V14.01,2013-04-30 01:10:00,
2013-04-29 21:13:00,54.7,46.6,30.18,East,90,2.7,4.0,74,0.00,,---,0.58,VWS V14.01,2013-04-30 01:13:00,
2013-04-29 21:18:00,54.7,46.6,30.18,SE,135,8.1,8.1,74,0.00,,---,0.58,VWS V14.01,2013-04-30 01:18:00,
2013-04-29 21:20:00,54.7,46.6,30.18,SE,135,2.0,4.0,74,0.00,,---,0.58,VWS V14.01,2013-04-30 01:20:00,
2013-04-29 21:23:00,54.7,46.6,30.18,SW,225,1.6,8.1,74,0.00,,---,0.58,VWS V14.01,2013-04-30 01:23:00,
2013-04-29 21:28:00,54.7,46.6,30.18,ESE,112,3.8,4.7,74,0.00,,---,0.58,VWS V14.01,2013-04-30 01:28:00,
2013-04-29 21:30:00,54.7,46.6,30.18,SE,135,1.1,8.1,74,0.00,,---,0.58,VWS V14.01,2013-04-30 01:30:00,
2013-04-29 21:33:00,54.7,46.6,30.18,ENE,68,3.4,5.4,74,0.00,,---,0.58,VWS V14.01,2013-04-30 01:33:00,
2013-04-29 21:38:00,54.7,46.2,30.18,ESE,112,2.5,7.8,73,0.00,,---,0.58,VWS V14.01,2013-04-30 01:38:00,
2013-04-29 21:40:00,54.7,46.6,30.18,ENE,68,3.4,5.4,74,0.00,,---,0.58,VWS V14.01,2013-04-30 01:40:00,
2013-04-29 21:44:00,54.7,46.2,30.18,East,90,5.4,5.4,73,0.00,,---,0.58,VWS V14.01,2013-04-30 01:44:00,
2013-04-29 21:49:00,54.7,46.2,30.18,SSW,202,2.7,7.2,73,0.00,,---,0.58,VWS V14.01,2013-04-30 01:49:00,
2013-04-29 21:50:00,54.7,46.2,30.18,East,90,5.4,7.8,73,0.00,,---,0.58,VWS V14.01,2013-04-30 01:50:00,
2013-04-29 21:54:00,54.7,46.2,30.18,East,90,4.0,4.0,73,0.00,,---,0.58,VWS V14.01,2013-04-30 01:54:00,
2013-04-29 21:59:00,54.5,46.0,30.18,SE,135,2.9,5.6,73,0.00,,---,0.58,VWS V14.01,2013-04-30 01:59:00,
2013-04-29 22:00:00,54.7,46.2,30.18,East,90,3.1,7.2,73,0.00,,---,0.58,VWS V14.01,2013-04-30 02:00:00,
2013-04-29 22:04:00,54.5,46.0,30.18,ESE,112,3.1,3.1,73,0.00,,---,0.58,VWS V14.01,2013-04-30 02:04:00,
2013-04-29 22:09:00,54.5,46.0,30.18,East,90,2.7,6.3,73,0.00,,---,0.58,VWS V14.01,2013-04-30 02:09:00,
2013-04-29 22:10:00,54.5,46.0,30.18,SE,135,3.1,6.3,73,0.00,,---,0.58,VWS V14.01,2013-04-30 02:10:00,
2013-04-29 22:14:00,54.5,46.0,30.18,ENE,68,2.0,3.4,73,0.00,,---,0.58,VWS V14.01,2013-04-30 02:14:00,
2013-04-29 22:19:00,54.5,46.0,30.18,SE,135,6.0,7.4,73,0.00,,---,0.58,VWS V14.01,2013-04-30 02:19:00,
2013-04-29 22:20:00,54.5,46.0,30.18,East,90,3.1,6.3,73,0.00,,---,0.58,VWS V14.01,2013-04-30 02:20:00,
2013-04-29 22:24:00,54.3,45.9,30.18,SSW,202,5.8,5.8,73,0.00,,---,0.58,VWS V14.01,2013-04-30 02:24:00,
2013-04-29 22:29:00,54.3,45.9,30.18,ENE,68,4.3,6.5,73,0.00,,---,0.58,VWS V14.01,2013-04-30 02:29:00,
2013-04-29 22:30:00,54.5,46.0,30.18,South,180,2.7,7.4,73,0.00,,---,0.58,VWS V14.01,2013-04-30 02:30:00,
2013-04-29 22:34:00,54.3,45.9,30.18,South,180,3.1,3.1,73,0.00,,---,0.58,VWS V14.01,2013-04-30 02:34:00,
2013-04-29 22:40:00,54.1,45.3,30.18,ESE,112,2.9,12.5,72,0.00,,---,0.58,VWS V14.01,2013-04-30 02:40:00,
2013-04-29 22:45:00,54.1,45.7,30.18,ESE,112,2.0,5.4,73,0.00,,---,0.58,VWS V14.01,2013-04-30 02:45:00,
2013-04-29 22:50:00,54.1,45.7,30.18,ESE,112,2.0,5.4,73,0.00,,---,0.58,VWS V14.01,2013-04-30 02:50:00,
2013-04-29 22:55:00,54.1,45.7,30.18,SE,135,10.5,10.5,73,0.00,,---,0.58,VWS V14.01,2013-04-30 02:55:00,
2013-04-29 23:00:00,54.0,45.5,30.18,ENE,68,1.6,10.5,73,0.00,,---,0.58,VWS V14.01,2013-04-30 03:00:00,
2013-04-29 23:05:00,54.0,45.9,30.18,East,90,2.5,4.7,74,0.00,,---,0.58,VWS V14.01,2013-04-30 03:05:00,
2013-04-29 23:10:00,54.0,45.9,30.18,ESE,112,4.0,4.7,74,0.00,,---,0.58,VWS V14.01,2013-04-30 03:10:00,
2013-04-29 23:16:00,54.0,45.9,30.18,South,180,0.0,4.3,74,0.00,,---,0.58,VWS V14.01,2013-04-30 03:16:00,
2013-04-29 23:20:00,54.0,45.9,30.18,ESE,112,2.7,4.7,74,0.00,,---,0.58,VWS V14.01,2013-04-30 03:20:00,
2013-04-29 23:21:00,54.0,45.9,30.18,WSW,248,2.2,6.0,74,0.00,,---,0.58,VWS V14.01,2013-04-30 03:21:00,
2013-04-29 23:26:00,54.0,45.9,30.18,South,180,1.6,6.3,74,0.00,,---,0.58,VWS V14.01,2013-04-30 03:26:00,
2013-04-29 23:30:00,54.0,45.9,30.18,ESE,112,3.1,6.0,74,0.00,,---,0.58,VWS V14.01,2013-04-30 03:30:00,
2013-04-29 23:31:00,54.0,46.2,30.18,South,180,4.0,6.3,75,0.00,,---,0.58,VWS V14.01,2013-04-30 03:31:00,
2013-04-29 23:36:00,54.0,46.2,30.18,SE,135,3.6,5.6,75,0.00,,---,0.58,VWS V14.01,2013-04-30 03:36:00,
2013-04-29 23:40:00,54.0,46.2,30.18,NNE,22,2.5,6.3,75,0.00,,---,0.58,VWS V14.01,2013-04-30 03:40:00,
2013-04-29 23:41:00,54.0,46.2,30.18,ENE,68,3.8,5.8,75,0.00,,---,0.58,VWS V14.01,2013-04-30 03:41:00,
2013-04-29 23:46:00,54.0,46.2,30.18,South,180,2.5,3.4,75,0.00,,---,0.58,VWS V14.01,2013-04-30 03:46:00,
2013-04-29 23:50:00,54.0,46.2,30.18,South,180,2.0,5.8,75,0.00,,---,0.58,VWS V14.01,2013-04-30 03:50:00,
2013-04-29 23:51:00,54.0,46.2,30.18,East,90,2.0,4.9,75,0.00,,---,0.58,VWS V14.01,2013-04-30 03:51:00,
2013-04-29 23:56:00,54.0,46.2,30.18,West,270,1.1,3.8,75,0.00,,---,0.00,VWS V14.01,2013-04-30 03:56:00,